Time,TemperatureF,DewpointF,PressureIn,WindDirection,WindDirectionDegrees,WindSpeedMPH,WindSpeedGustMPH,Humidity,HourlyPrecipIn,Conditions,Clouds,dailyrainin,SoftwareType,DateUTC
2013-02-03 00:02:00,29.0,26.0,30.15,WNW,298,0.0,-999.0,88,-99.99,,,-99.99,,2013-02-03 06:02:00,
2013-02-03 00:11:00,29.0,26.0,30.15,WNW,298,0.0,-999.0,88,-99.99,,,-99.99,,2013-02-03 06:11:00,
2013-02-03 00:21:00,29.0,26.0,30.15,WNW,298,0.0,-999.0,88,-99.99,,,-99.99,,2013-02-03 06:21:00,
2013-02-03 00:32:00,28.0,25.0,30.15,WNW,298,0.0,-999.0,88,-99.99,,,-99.99,,2013-02-03 06:32:00,
2013-02-03 00:52:00,28.0,25.0,30.14,WNW,298,0.0,-999.0,88,-99.99,,,-99.99,,2013-02-03 06:52:00,
2013-02-03 01:01:00,28.0,25.0,30.14,WNW,298,0.0,-999.0,89,-99.99,,,-99.99,,2013-02-03 07:01:00,
2013-02-03 01:21:00,28.0,25.0,30.13,WNW,298,0.0,-999.0,89,-99.99,,,-99.99,,2013-02-03 07:21:00,
2013-02-03 01:31:00,27.0,24.0,30.12,WNW,298,0.0,-999.0,89,-99.99,,,-99.99,,2013-02-03 07:31:00,
2013-02-03 01:52:00,27.0,24.0,30.11,WNW,298,0.0,-999.0,89,-99.99,,,-99.99,,2013-02-03 07:52:00,
2013-02-03 02:01:00,27.0,24.0,30.11,WNW,298,0.0,-999.0,90,-99.99,,,-99.99,,2013-02-03 08:01:00,
2013-02-03 02:22:00,27.0,24.0,30.11,WNW,298,0.0,-999.0,90,-99.99,,,-99.99,,2013-02-03 08:22:00,
2013-02-03 02:32:00,27.0,24.0,30.12,WNW,298,0.0,-999.0,90,-99.99,,,-99.99,,2013-02-03 08:32:00,
2013-02-03 02:52:00,28.0,26.0,30.13,WNW,298,0.0,-999.0,91,-99.99,,,-99.99,,2013-02-03 08:52:00,
2013-02-03 03:21:00,29.0,26.0,30.14,WNW,298,0.0,-999.0,90,-99.99,,,-99.99,,2013-02-03 09:21:00,
2013-02-03 03:31:00,29.0,26.0,30.14,WNW,298,0.0,-999.0,90,-99.99,,,-99.99,,2013-02-03 09:31:00,
2013-02-03 03:52:00,29.0,26.0,30.14,WNW,298,1.0,-999.0,90,-99.99,,,-99.99,,2013-02-03 09:52:00,
2013-02-03 04:01:00,29.0,26.0,30.14,WNW,298,0.0,-999.0,90,-99.99,,,-99.99,,2013-02-03 10:01:00,
2013-02-03 04:21:00,29.0,27.0,30.14,WNW,298,0.0,-999.0,91,-99.99,,,-99.99,,2013-02-03 10:21:00,
2013-02-03 04:31:00,30.0,28.0,30.14,WNW,298,0.0,-999.0,91,-99.99,,,-99.99,,2013-02-03 10:31:00,
2013-02-03 04:52:00,30.0,28.0,30.14,WNW,298,0.0,-999.0,91,-99.99,,,-99.99,,2013-02-03 10:52:00,
2013-02-03 05:02:00,30.0,28.0,30.14,WNW,298,0.0,-999.0,91,-99.99,,,-99.99,,2013-02-03 11:02:00,
2013-02-03 05:11:00,30.0,28.0,30.14,WNW,298,0.0,-999.0,91,-99.99,,,-99.99,,2013-02-03 11:11:00,
2013-02-03 05:22:00,31.0,29.0,30.14,WNW,298,0.0,-999.0,91,-99.99,,,-99.99,,2013-02-03 11:22:00,
2013-02-03 05:32:00,31.0,28.0,30.15,WNW,298,0.0,-999.0,90,-99.99,,,-99.99,,2013-02-03 11:32:00,
2013-02-03 05:52:00,30.0,27.0,30.16,WNW,298,0.0,-999.0,89,-99.99,,,-99.99,,2013-02-03 11:52:00,
2013-02-03 06:02:00,30.0,27.0,30.16,WNW,298,0.0,-999.0,90,-99.99,,,-99.99,,2013-02-03 12:02:00,
2013-02-03 06:22:00,30.0,27.0,30.16,WNW,298,0.0,-999.0,90,-99.99,,,-99.99,,2013-02-03 12:22:00,
2013-02-03 06:32:00,30.0,27.0,30.16,WNW,298,0.0,-999.0,90,-99.99,,,-99.99,,2013-02-03 12:32:00,
2013-02-03 06:53:00,31.0,28.0,30.16,WNW,298,0.0,-999.0,89,-99.99,,,-99.99,,2013-02-03 12:53:00,
2013-02-03 07:03:00,31.0,28.0,30.16,WNW,298,0.0,-999.0,89,-99.99,,,-99.99,,2013-02-03 13:03:00,
2013-02-03 07:11:00,31.0,28.0,30.16,WNW,298,0.0,-999.0,89,-99.99,,,-99.99,,2013-02-03 13:11:00,
2013-02-03 07:21:00,30.0,27.0,30.17,WNW,298,0.0,-999.0,89,-99.99,,,-99.99,,2013-02-03 13:21:00,
2013-02-03 07:32:00,30.0,27.0,30.18,WNW,298,0.0,-999.0,89,-99.99,,,-99.99,,2013-02-03 13:32:00,
2013-02-03 07:52:00,30.0,27.0,30.18,NNE,33,0.0,-999.0,90,-99.99,,,-99.99,,2013-02-03 13:52:00,
2013-02-03 08:02:00,30.0,28.0,30.19,ENE,66,0.0,-999.0,91,-99.99,,,-99.99,,2013-02-03 14:02:00,
2013-02-03 08:21:00,37.0,31.0,30.20,West,264,3.0,-999.0,80,-99.99,,,-99.99,,2013-02-03 14:21:00,
2013-02-03 08:32:00,41.0,31.0,30.21,West,263,6.0,-999.0,68,-99.99,,,-99.99,,2013-02-03 14:32:00,
2013-02-03 08:42:00,41.0,31.0,30.21,West,263,6.0,-999.0,68,-99.99,,,-99.99,,2013-02-03 14:42:00,
2013-02-03 08:52:00,42.0,31.0,30.21,WNW,300,4.0,-999.0,64,-99.99,,,-99.99,,2013-02-03 14:52:00,
2013-02-03 09:03:00,42.0,30.0,30.21,North,5,5.0,-999.0,61,-99.99,,,-99.99,,2013-02-03 15:03:00,
2013-02-03 09:11:00,42.0,30.0,30.21,North,5,5.0,-999.0,61,-99.99,,,-99.99,,2013-02-03 15:11:00,
2013-02-03 09:22:00,43.0,31.0,30.22,West,261,4.0,-999.0,63,-99.99,,,-99.99,,2013-02-03 15:22:00,
2013-02-03 09:32:00,43.0,29.0,30.23,West,277,5.0,-999.0,58,-99.99,,,-99.99,,2013-02-03 15:32:00,
2013-02-03 09:42:00,43.0,29.0,30.23,West,277,5.0,-999.0,58,-99.99,,,-99.99,,2013-02-03 15:42:00,
2013-02-03 09:52:00,44.0,30.0,30.24,West,262,6.0,-999.0,58,-99.99,,,-99.99,,2013-02-03 15:52:00,
2013-02-03 10:02:00,44.0,29.0,30.24,WSW,244,5.0,-999.0,56,-99.99,,,-99.99,,2013-02-03 16:02:00,
2013-02-03 10:11:00,44.0,29.0,30.24,WSW,244,5.0,-999.0,56,-99.99,,,-99.99,,2013-02-03 16:11:00,
2013-02-03 10:22:00,45.0,29.0,30.24,NNW,335,8.0,-999.0,54,-99.99,,,-99.99,,2013-02-03 16:22:00,
2013-02-03 10:32:00,46.0,29.0,30.24,WNW,285,6.0,-999.0,51,-99.99,,,-99.99,,2013-02-03 16:32:00,
2013-02-03 10:41:00,46.0,29.0,30.24,WNW,285,6.0,-999.0,51,-99.99,,,-99.99,,2013-02-03 16:41:00,
2013-02-03 10:52:00,46.0,27.0,30.25,West,261,6.0,-999.0,47,-99.99,,,-99.99,,2013-02-03 16:52:00,
2013-02-03 11:02:00,46.0,26.0,30.25,WNW,293,7.0,-999.0,45,-99.99,,,-99.99,,2013-02-03 17:02:00,
2013-02-03 11:11:00,46.0,26.0,30.25,WNW,293,7.0,-999.0,45,-99.99,,,-99.99,,2013-02-03 17:11:00,
2013-02-03 11:21:00,47.0,25.0,30.24,North,350,5.0,-999.0,42,-99.99,,,-99.99,,2013-02-03 17:21:00,
2013-02-03 11:32:00,48.0,27.0,30.24,NNW,330,5.0,-999.0,43,-99.99,,,-99.99,,2013-02-03 17:32:00,
2013-02-03 11:42:00,48.0,27.0,30.24,NNW,330,5.0,-999.0,43,-99.99,,,-99.99,,2013-02-03 17:42:00,
2013-02-03 11:52:00,48.0,24.0,30.24,WNW,291,6.0,-999.0,39,-99.99,,,-99.99,,2013-02-03 17:52:00,
2013-02-03 12:02:00,49.0,24.0,30.23,NW,320,6.0,-999.0,37,-99.99,,,-99.99,,2013-02-03 18:02:00,
2013-02-03 12:12:00,49.0,24.0,30.23,NW,320,6.0,-999.0,37,-99.99,,,-99.99,,2013-02-03 18:12:00,
2013-02-03 12:23:00,50.0,25.0,30.22,WNW,286,6.0,-999.0,37,-99.99,,,-99.99,,2013-02-03 18:23:00,
2013-02-03 12:32:00,50.0,25.0,30.22,West,274,6.0,-999.0,37,-99.99,,,-99.99,,2013-02-03 18:32:00,
2013-02-03 12:42:00,50.0,25.0,30.22,West,274,6.0,-999.0,37,-99.99,,,-99.99,,2013-02-03 18:42:00,
2013-02-03 12:52:00,51.0,25.0,30.21,West,273,6.0,-999.0,36,-99.99,,,-99.99,,2013-02-03 18:52:00,
2013-02-03 13:02:00,51.0,24.0,30.20,WSW,238,6.0,-999.0,35,-99.99,,,-99.99,,2013-02-03 19:02:00,
2013-02-03 13:11:00,51.0,24.0,30.20,WSW,238,6.0,-999.0,35,-99.99,,,-99.99,,2013-02-03 19:11:00,
2013-02-03 13:22:00,52.0,25.0,30.19,West,277,4.0,-999.0,35,-99.99,,,-99.99,,2013-02-03 19:22:00,
2013-02-03 13:32:00,52.0,25.0,30.18,WNW,294,4.0,-999.0,35,-99.99,,,-99.99,,2013-02-03 19:32:00,
2013-02-03 13:41:00,52.0,25.0,30.18,WNW,294,4.0,-999.0,35,-99.99,,,-99.99,,2013-02-03 19:41:00,
2013-02-03 13:52:00,52.0,25.0,30.17,NNW,331,3.0,-999.0,34,-99.99,,,-99.99,,2013-02-03 19:52:00,
2013-02-03 14:01:00,52.0,23.0,30.17,NW,309,4.0,-999.0,32,-99.99,,,-99.99,,2013-02-03 20:01:00,
2013-02-03 14:12:00,52.0,23.0,30.17,NW,309,4.0,-999.0,32,-99.99,,,-99.99,,2013-02-03 20:12:00,
2013-02-03 14:21:00,53.0,24.0,30.17,NW,304,4.0,-999.0,32,-99.99,,,-99.99,,2013-02-03 20:21:00,
2013-02-03 14:32:00,54.0,25.0,30.16,NW,311,2.0,-999.0,32,-99.99,,,-99.99,,2013-02-03 20:32:00,
2013-02-03 14:42:00,54.0,25.0,30.16,NW,311,2.0,-999.0,32,-99.99,,,-99.99,,2013-02-03 20:42:00,
2013-02-03 14:52:00,54.0,25.0,30.16,WNW,300,3.0,-999.0,32,-99.99,,,-99.99,,2013-02-03 20:52:00,
2013-02-03 15:03:00,54.0,25.0,30.16,West,262,3.0,-999.0,32,-99.99,,,-99.99,,2013-02-03 21:03:00,
2013-02-03 15:11:00,54.0,25.0,30.16,West,262,3.0,-999.0,32,-99.99,,,-99.99,,2013-02-03 21:11:00,
2013-02-03 15:21:00,54.0,24.0,30.16,West,274,3.0,-999.0,31,-99.99,,,-99.99,,2013-02-03 21:21:00,
2013-02-03 15:32:00,55.0,25.0,30.14,NW,315,1.0,-999.0,31,-99.99,,,-99.99,,2013-02-03 21:32:00,
2013-02-03 15:42:00,55.0,25.0,30.14,NW,315,1.0,-999.0,31,-99.99,,,-99.99,,2013-02-03 21:42:00,
2013-02-03 15:52:00,55.0,26.0,30.14,West,276,1.0,-999.0,33,-99.99,,,-99.99,,2013-02-03 21:52:00,
2013-02-03 16:01:00,55.0,27.0,30.14,WSW,257,2.0,-999.0,34,-99.99,,,-99.99,,2013-02-03 22:01:00,
2013-02-03 16:11:00,55.0,27.0,30.14,WSW,257,2.0,-999.0,34,-99.99,,,-99.99,,2013-02-03 22:11:00,
2013-02-03 16:21:00,54.0,25.0,30.13,WSW,257,0.0,-999.0,32,-99.99,,,-99.99,,2013-02-03 22:21:00,
2013-02-03 16:32:00,55.0,26.0,30.11,WSW,257,0.0,-999.0,33,-99.99,,,-99.99,,2013-02-03 22:32:00,
2013-02-03 16:41:00,55.0,26.0,30.11,WSW,257,0.0,-999.0,33,-99.99,,,-99.99,,2013-02-03 22:41:00,
2013-02-03 16:52:00,55.0,27.0,30.11,WSW,257,0.0,-999.0,34,-99.99,,,-99.99,,2013-02-03 22:52:00,
2013-02-03 17:01:00,54.0,26.0,30.11,WSW,257,0.0,-999.0,34,-99.99,,,-99.99,,2013-02-03 23:01:00,
2013-02-03 17:12:00,54.0,26.0,30.11,WSW,257,0.0,-999.0,34,-99.99,,,-99.99,,2013-02-03 23:12:00,
2013-02-03 17:22:00,53.0,26.0,30.11,WSW,257,0.0,-999.0,35,-99.99,,,-99.99,,2013-02-03 23:22:00,
2013-02-03 17:32:00,51.0,32.0,30.11,WSW,257,0.0,-999.0,48,-99.99,,,-99.99,,2013-02-03 23:32:00,
2013-02-03 17:52:00,49.0,28.0,30.10,WSW,257,0.0,-999.0,44,-99.99,,,-99.99,,2013-02-03 23:52:00,
2013-02-03 18:01:00,47.0,29.0,30.09,WSW,257,0.0,-999.0,49,-99.99,,,-99.99,,2013-02-04 00:01:00,
2013-02-03 18:22:00,44.0,28.0,30.09,WSW,257,0.0,-999.0,54,-99.99,,,-99.99,,2013-02-04 00:22:00,
2013-02-03 18:31:00,42.0,28.0,30.09,WSW,257,0.0,-999.0,57,-99.99,,,-99.99,,2013-02-04 00:31:00,
2013-02-03 18:52:00,40.0,27.0,30.10,WSW,257,0.0,-999.0,60,-99.99,,,-99.99,,2013-02-04 00:52:00,
2013-02-03 19:21:00,37.0,26.0,30.10,WSW,257,0.0,-999.0,65,-99.99,,,-99.99,,2013-02-04 01:21:00,
2013-02-03 19:31:00,36.0,26.0,30.09,WSW,257,0.0,-999.0,66,-99.99,,,-99.99,,2013-02-04 01:31:00,
2013-02-03 19:52:00,36.0,26.0,30.09,WSW,257,0.0,-999.0,67,-99.99,,,-99.99,,2013-02-04 01:52:00,
2013-02-03 20:02:00,35.0,26.0,30.08,WSW,257,0.0,-999.0,69,-99.99,,,-99.99,,2013-02-04 02:02:00,
2013-02-03 20:21:00,34.0,25.0,30.09,WSW,257,0.0,-999.0,69,-99.99,,,-99.99,,2013-02-04 02:21:00,
2013-02-03 20:31:00,34.0,26.0,30.09,WSW,257,0.0,-999.0,71,-99.99,,,-99.99,,2013-02-04 02:31:00,
2013-02-03 20:52:00,33.0,25.0,30.09,WSW,257,0.0,-999.0,72,-99.99,,,-99.99,,2013-02-04 02:52:00,
2013-02-03 21:02:00,33.0,25.0,30.08,WSW,257,0.0,-999.0,72,-99.99,,,-99.99,,2013-02-04 03:02:00,
2013-02-03 21:11:00,33.0,25.0,30.08,WSW,257,0.0,-999.0,72,-99.99,,,-99.99,,2013-02-04 03:11:00,
2013-02-03 21:21:00,33.0,25.0,30.08,WSW,257,0.0,-999.0,72,-99.99,,,-99.99,,2013-02-04 03:21:00,
2013-02-03 21:32:00,33.0,25.0,30.08,WSW,257,0.0,-999.0,72,-99.99,,,-99.99,,2013-02-04 03:32:00,
2013-02-03 21:41:00,33.0,25.0,30.08,WSW,257,0.0,-999.0,72,-99.99,,,-99.99,,2013-02-04 03:41:00,
2013-02-03 21:52:00,33.0,25.0,30.07,WSW,257,0.0,-999.0,73,-99.99,,,-99.99,,2013-02-04 03:52:00,
2013-02-03 22:01:00,32.0,25.0,30.07,WSW,257,0.0,-999.0,74,-99.99,,,-99.99,,2013-02-04 04:01:00,
2013-02-03 22:11:00,32.0,25.0,30.07,WSW,257,0.0,-999.0,74,-99.99,,,-99.99,,2013-02-04 04:11:00,
2013-02-03 22:21:00,32.0,25.0,30.07,WSW,257,0.0,-999.0,74,-99.99,,,-99.99,,2013-02-04 04:21:00,
2013-02-03 22:32:00,31.0,25.0,30.05,WSW,257,0.0,-999.0,77,-99.99,,,-99.99,,2013-02-04 04:32:00,
2013-02-03 22:52:00,31.0,25.0,30.04,WSW,257,0.0,-999.0,78,-99.99,,,-99.99,,2013-02-04 04:52:00,
2013-02-03 23:03:00,31.0,25.0,30.04,WSW,257,0.0,-999.0,77,-99.99,,,-99.99,,2013-02-04 05:03:00,
2013-02-03 23:11:00,31.0,25.0,30.04,WSW,257,0.0,-999.0,77,-99.99,,,-99.99,,2013-02-04 05:11:00,
2013-02-03 23:22:00,31.0,25.0,30.03,WSW,257,0.0,-999.0,79,-99.99,,,-99.99,,2013-02-04 05:22:00,
2013-02-03 23:33:00,31.0,26.0,30.03,WSW,257,0.0,-999.0,80,-99.99,,,-99.99,,2013-02-04 05:33:00,
2013-02-03 23:52:00,31.0,26.0,30.03,WSW,257,0.0,-999.0,80,-99.99,,,-99.99,,2013-02-04 05:52:00,